User: anonymous   Login
Location: Unspecified
(0.0000°N, 0.0000°E)
Time: 10:49:35
(UTC+00:00)
Language:

ELFIN A - Orbit

View from above orbital plane
View from above orbital plane
View from above satellite
View from above satellite

Ground track
Ground track

The orbit data is extracted from the following two-line orbital elements,

1 43617U 18070E   19112.14986084  .00003061  00000-0  82507-4 0  9997
2 43617  93.0307 340.0305 0017015 158.7778 201.4185 15.37734790 33572
Epoch (UTC): 22 April 2019 03:35:47
Eccentricity: 0.0017015
inclination: 93.0307°
perigee height: 441 km
apogee height: 464 km
right ascension of ascending node: 340.0305°
argument of perigee: 158.7778°
revolutions per day: 15.37734790
mean anomaly at epoch: 201.4185°
orbit number at epoch: 3357

The dashed part of the orbit path shows where the satellite is in the earth's shadow,  

DLR